Location: Eitze
(52.9840°N, 9.6894°E)
Time: 01:16:09
(UTC+00:00)

ERS-1 Rocket - Pass Details

Date: 19 May 2025
Orbit: 747 x 753 km, 98.2° (Epoch: 23 June)

Event Time Altitude Azimuth Distance (km) Brightness Sun altitude
Exits shadow 20:04:55 - 171° (S) 3,096 5.6 -6.0°
Reaches altitude 10° 20:06:59 10° 173° (S) 2,273 5.0 -6.2°
Maximum altitude 20:11:58 69° 257° (WSW) 811 3.3 -6.7°
Drops below altitude 10° 20:17:00 10° 341° (NNW) 2,290 6.7 -7.2°
Sets 20:19:20 0° 344° (NNW) 3,219 7.6 -7.5°
